Location: Cavern and Grand Ledge Mine
(34.0640°N, 107.1903°W)
Time: 05:58:53
(UTC+00:00)

Daily predictions for brighter satellites

Satellite Brightness Start Highest point End
(mag) Time Altitude Azimuth Time Altitude Azimuth Time Altitude Azimuth
CZ-3A R/B 4.2 02:26:59 10° SSW 02:30:57 31° SSE 02:45:38 10° E
CSL-04 DEB 4.3 02:43:33 10° SSE 02:47:23 73° ENE 02:51:16 10° N
Resurs 01 Rocket 2.0 02:44:11 10° S 02:48:33 71° W 02:52:58 10° NNW
Cosmos 1300 Rocket 4.2 02:45:13 10° NNE 02:49:14 35° E 02:53:10 10° SE
IRIDIUM 104 4.4 02:44:46 10° S 02:49:58 87° E 02:55:13 10° N
BREEZE-M R/B 4.2 02:45:58 10° WNW 02:52:04 35° WSW 02:55:09 10° SSE
SL-08 R/B 3.2 02:48:03 10° NNE 02:52:40 76° ESE 02:57:21 10° S
Helios 1B rocket 4.3 02:51:48 10° E 02:53:21 12° ENE 02:54:55 10° NE
PAYLOAD B 4.5 02:49:48 10° SSE 02:55:09 53° ENE 03:00:30 10° N
DELTA 2 R/B (1) 3.8 02:55:40 10° SW 03:00:57 48° SSE 03:06:16 10° ENE
Cosmos 1908 Rocket 3.8 02:56:35 10° N 03:01:01 77° W 03:05:25 10° S
Tiangong -1.1 03:01:18 10° SSW 03:04:08 27° SE 03:06:58 10° E
Cosmos 2034 Rocket 4.1 02:58:07 10° N 03:04:26 61° E 03:10:41 10° SSE
TRACE 3.4 03:02:49 10° NNE 03:04:30 33° E 03:06:01 11° SSE
Okean O Rocket 2.9 03:02:24 11° ESE 03:05:43 24° ENE 03:09:12 10° NNE
Meteor 2-5 Rocket 4.2 03:03:24 10° SSW 03:09:13 68° W 03:14:58 10° N
Tsikada Rocket 4.0 03:11:28 10° S 03:17:45 74° E 03:24:10 10° N
CZ-4B R/B 3.9 03:15:37 12° SE 03:20:13 48° ENE 03:25:11 10° N
Cosmos 1777 Rocket 4.3 03:16:13 10° S 03:21:07 44° ESE 03:26:03 10° NNE
Meteor PRIRODA 4.3 03:25:45 21° E 03:26:30 24° ENE 03:28:51 10° NNE
Feng Yun 1-1 Rocket 4.4 03:23:11 10° SSE 03:29:00 86° WSW 03:34:42 10° NNW
MOS 1-B 4.5 03:28:28 15° SSE 03:33:06 58° ENE 03:38:44 10° N
CZ-4 R/B 3.1 03:34:19 10° SSW 03:37:29 27° W 03:40:41 10° NW
Cosmos 1606 2.2 03:34:53 10° N 03:37:56 73° W 03:39:56 20° S
Meteor 1-21 Rocket 4.5 03:35:43 13° SSE 03:40:28 47° E 03:45:49 10° NNE
Cosmos 1570 Rocket 4.0 03:37:23 10° NNW 03:42:39 73° ENE 03:46:02 22° SSE
Cosmos 44 3.6 03:42:28 25° SSE 03:43:59 32° ESE 03:47:50 10° NE
Cosmos 2297 3.6 03:39:46 10° SSW 03:45:23 80° ESE 03:51:03 10° NNE
USA 186 3.6 03:46:10 10° SSW 03:48:24 23° W 03:50:40 10° NW
Spot 2 Rocket 4.2 03:46:23 25° ESE 03:48:36 36° ENE 03:53:13 10° N
Okean 2 Rocket 4.3 03:49:06 10° NNE 03:52:39 24° ENE 03:53:11 23° E
Terra 1.8 03:52:28 28° SSE 03:54:53 67° ENE 03:59:34 10° N
Cosmos 2242 Rocket 4.4 03:52:46 10° SSW 03:56:59 50° W 04:01:15 10° N
COSMOS 2406 3.2 03:51:47 10° NNW 03:57:33 82° WSW 04:01:02 25° SSE
Chandra Rocket (1) 4.2 03:40:49 10° SW 03:57:39 33° S 04:00:32 26° SE
Cosmos 2151 Rocket 4.3 03:55:10 10° NNE 03:59:20 37° E 04:00:13 33° ESE
CZ-4B R/B 3.9 03:54:28 10° S 03:59:34 49° W 04:04:49 10° NNW
ERS-1 Rocket 2.9 03:58:55 25° SSE 04:01:53 87° W 04:06:53 10° NNW
Cosmos 2221 Rocket 4.0 04:02:08 38° SE 04:03:07 44° E 04:07:24 10° NNE
SPOT 5 4.1 03:58:15 10° SSW 04:03:08 42° W 04:08:08 10° NNW
CZ-4B R/B 3.5 04:03:58 24° SSW 04:05:42 44° W 04:09:11 10° NNW
Okean 1 Rocket 4.2 04:05:03 10° NNE 04:08:46 27° ENE 04:08:48 27° ENE
In-Cosmos 22 Rocket 4.3 04:04:41 12° S 04:10:05 86° W 04:15:54 10° N
CZ-4C R/B 1.3 04:09:47 35° S 04:11:19 65° ESE 04:15:57 10° NE
Cosmos 1340 Rocket 2.7 04:09:21 10° N 04:13:12 78° W 04:14:05 51° S
Cosmos 2082 Rocket 3.7 04:10:20 10° NW 04:15:16 31° WSW 04:19:44 12° SSW
Cosmos 990 Rocket 3.9 04:13:17 31° S 04:15:41 66° ESE 04:20:50 10° NNE
Cosmos 2369 Rocket 3.0 04:16:32 10° SW 04:22:03 50° WNW 04:27:35 10° N
USA 245 3.4 04:21:13 55° SSE 04:22:08 78° ENE 04:25:59 10° N
Cosmos 1900 4.4 04:22:02 50° SE 04:22:19 51° ESE 04:27:13 10° NE
NOSS 3-4 (A) 4.3 04:15:44 10° NNW 04:22:42 52° NE 04:26:16 32° ESE
NOSS 3-4 (C) 4.4 04:15:48 10° NNW 04:22:45 51° NE 04:26:17 32° ESE
Helios 1A 3.9 04:19:09 10° N 04:22:53 43° WNW 04:25:48 15° SW
Sich 1 Rocket 3.9 04:19:25 10° N 04:23:49 48° E 04:24:02 48° E
Cosmos 1674 Rocket 3.9 04:23:16 29° SSW 04:25:22 64° W 04:29:46 10° N
Cosmos 1869 3.0 04:21:57 10° N 04:25:16 76° NNE 04:25:16 76° NNE
Helios 1B rocket 3.5 04:25:28 26° SW 04:26:38 33° W 04:29:59 10° NNW
Nadezhda 4 Rocket 4.0 04:26:02 37° SSE 04:28:36 69° E 04:34:53 10° NNE
Okean-O 3.6 04:32:26 29° SW 04:34:01 40° W 04:38:09 10° NNW
Cosmos 2285 Rocket 4.0 04:32:06 40° SSE 04:34:22 64° ESE 04:40:41 10° NNE
OAO 3 Copernicus 4.3 04:30:15 10° WSW 04:34:52 60° S 04:34:52 60° S
Tiangong -0.5 04:37:59 10° W 04:40:16 35° WNW 04:40:16 35° WNW
Okean O Rocket 3.5 04:39:40 17° SW 04:41:46 24° W 04:45:19 10° NW
Cosmos 783 Rocket 4.3 04:39:28 10° NNW 04:44:45 78° ENE 04:45:18 69° SE
DELTA 2 R/B (1) 3.9 04:41:47 10° W 04:47:16 63° NNW 04:51:41 16° ENE
Cosmos 2026 Rocket 4.1 04:47:18 49° ESE 04:47:40 50° E 04:53:28 10° NNE
Cosmos 1025 Rocket 3.5 04:47:33 50° WSW 04:48:13 56° W 04:52:30 10° N
Ariane Rocket 2.8 04:52:03 77° SSE 04:52:24 86° ENE 04:57:28 10° NNW
Cosmos 1428 Rocket 4.3 04:52:59 54° S 04:54:32 87° E 05:00:44 10° N
ASTEX 1 3.9 04:52:49 10° N 04:57:32 53° W 04:58:39 43° SW
COBE Rocket 3.9 05:02:48 10° N 05:07:12 70° WNW 05:07:12 70° WNW
Cosmos 1092 Rocket 3.9 05:09:04 68° ESE 05:09:29 71° E 05:15:47 10° N
Cosmos 1867 3.7 05:17:38 64° W 05:18:13 70° WNW 05:23:40 10° NNE
SPOT 3 Rocket 4.2 05:18:24 45° WSW 05:18:44 45° W 05:23:43 10° NNW
Cosmos 1833 4.2 05:21:41 10° NNW 05:27:01 72° W 05:27:01 72° W
Cosmos 1898 Rocket 3.9 05:34:56 59° NW 05:34:56 59° NW 05:39:43 10° N
Cosmos 1818 4.1 05:32:55 10° NW 05:37:24 53° WNW 05:37:24 53° WNW
USA 81 4.4 05:39:28 61° NNW 05:39:28 61° NNW 05:43:54 10° N
Cosmos 1656 4.2 05:53:38 52° NNE 05:53:38 52° NNE 05:57:47 10° NNE
Cosmos 2297 Rocket 3.4 06:19:28 10° N 06:23:35 36° NE 06:23:35 36° NE
Cosmos 1980 Rocket 4.3 06:31:07 16° ENE 06:31:07 16° ENE 06:32:30 10° NE
Cosmos 1697 Rocket 3.9 06:35:12 35° NE 06:35:12 35° NE 06:38:25 10° NNE
Cosmos 2266 Rocket 4.4 06:38:30 62° NNW 06:38:30 62° NNW 06:43:49 10° N
Cosmos 2227 Rocket 3.6 06:52:20 10° N 06:56:29 31° NE 06:56:29 31° NE
CENTAUR R/B 4.3 07:45:53 17° ENE 07:45:53 17° ENE 07:47:59 10° ENE
Cosmos 2263 Rocket 3.3 07:40:49 10° N 07:45:09 39° NE 07:45:09 39° NE
Lacrosse 5 rocket 4.2 07:51:31 10° N 07:52:34 14° N 07:52:34 14° N
SL-16 R/B 3.8 08:00:59 27° ENE 08:00:59 27° ENE 08:04:21 10° NE
Cosmos 2333 Rocket 4.2 08:03:38 19° E 08:03:38 19° E 08:06:29 10° NE
Cosmos 2297 Rocket 4.4 08:04:09 10° NW 08:05:21 15° WNW 08:05:21 15° WNW
Cosmos 2219 4.0 08:03:37 10° N 08:08:10 48° NNE 08:08:10 48° NNE
Cosmos 1980 Rocket 3.4 08:12:51 33° NW 08:12:51 33° NW 08:16:54 10° N
CZ-2C R/B 3.4 08:23:44 49° NNW 08:23:44 49° NNW 08:27:46 10° NNW
Cosmos 2221 4.5 08:28:26 10° N 08:30:24 26° N 08:30:24 26° N
Resurs 1-4 Rocket 3.9 08:28:33 10° NE 08:32:34 23° E 08:32:34 23° E
H-2A R/B 4.3 08:29:26 10° NE 08:31:28 20° ENE 08:31:28 20° ENE
USA 215 3.8 08:39:39 44° WNW 08:39:39 44° WNW 08:44:07 10° NW
ATLAS 2AS CENTAUR R/B 2.6 08:31:11 10° NNW 08:37:55 74° ENE 08:38:28 70° E
Cosmos 2227 Rocket 4.2 08:36:31 10° NW 08:38:15 18° WNW 08:38:15 18° WNW
IDEFIX/ARIANE 42P 3.0 08:40:49 10° NNE 08:44:56 57° NNE 08:44:56 57° NNE
CZ-2D R/B 3.5 08:42:42 10° NE 08:47:08 28° E 08:47:09 28° E
Cosmos 2360 Rocket 3.0 08:50:03 41° E 08:50:03 41° E 08:54:58 10° NE
Meteor 1-19 Rocket 4.5 08:48:13 10° N 08:53:45 63° E 08:53:47 63° E
Cosmos 2278 3.8 08:55:36 70° N 08:55:36 70° N 09:00:37 10° NNE
OAO 3 Rocket 4.4 09:02:52 35° E 09:02:52 35° E 09:05:36 10° E
MOZ.5/SAFIR/RUBIN 5/SL-8 4.4 09:04:14 54° NE 09:04:14 54° NE 09:08:17 10° N
Cosmos 2219 Rocket 3.5 09:03:42 29° ESE 09:04:18 29° ESE 09:09:04 10° NE
ALOS 3.7 09:06:00 10° NE 09:09:55 28° E 09:10:04 28° E
Cosmos 1241 Rocket 4.4 09:11:02 76° SW 09:11:37 87° WNW 09:18:12 10° NNE
Cosmos 2322 Rocket 2.1 09:12:01 81° E 09:12:01 81° E 09:17:36 10° NNE
ATLAS 5 CENTAUR R/B 3.8 09:10:23 10° N 09:14:40 30° NE 09:19:46 10° ESE
ADEOS II 3.0 09:13:27 10° NNE 09:18:20 39° E 09:19:13 36° ESE
Cosmos 2074 Rocket 4.2 09:18:22 50° SE 09:19:45 63° E 09:25:54 10° NNE
Meteor 1-25 Rocket 4.4 09:26:05 57° WNW 09:26:05 57° WNW 09:31:34 10° N
Envisat 3.9 09:24:33 10° NNE 09:29:19 41° E 09:30:29 35° SE
Cosmos 2263 Rocket 4.2 09:25:31 10° NW 09:26:47 15° WNW 09:26:47 15° WNW
Cosmos 1842 Rocket 3.7 09:27:52 10° N 09:31:55 68° NE 09:31:55 68° NE
CENTAUR R/B 2.7 09:32:59 43° WNW 09:33:40 45° NW 09:39:50 10° NNE
NOSS 3-2 (C) 4.3 09:37:36 25° SE 09:38:44 27° ESE 09:43:11 10° NE
Meteor 1-27 Rocket 3.7 09:34:07 10° NNW 09:40:01 74° W 09:40:59 61° SSW
Cosmos 1842 4.2 09:37:07 10° N 09:39:34 39° NNE 09:39:34 39° NNE
SL-16 R/B 3.3 09:42:49 29° WNW 09:43:23 30° WNW 09:48:19 10° N
FENGYUN 3A 4.0 09:40:39 10° N 09:45:47 46° WNW 09:46:13 45° W
NOAA 11 4.2 09:40:32 10° NNE 09:45:58 77° ESE 09:47:21 51° S
Cosmos 2333 Rocket 2.6 09:45:39 45° W 09:46:21 47° WNW 09:51:51 10° N
Alouette 2 Rocket 3.8 09:46:28 66° WSW 09:46:46 68° WNW 09:52:56 10° N
NOSS 3-2 (A) 2.8 09:47:01 69° WSW 09:47:33 78° WNW 09:53:04 10° NNE
ATLAS CENTAUR R/B 2.1 09:50:22 37° ESE 09:50:22 37° ESE 09:53:34 10° NE
SL-16 R/B 4.1 09:47:04 10° SE 09:52:36 34° ENE 09:58:09 10° N
Cosmos 1536 4.5 09:52:27 21° ESE 09:53:40 25° E 09:56:46 10° NNE
OAO 2 Rocket 4.0 09:57:47 37° SSE 09:57:47 37° SSE 10:01:06 10° SE
Cosmos 2181 Rocket 4.0 09:50:50 10° NNW 09:56:48 57° W 09:58:16 46° SW
CZ-3 R/B 4.2 09:07:18 10° W 10:01:22 74° S 10:13:46 10° ESE
Meteor 2-4 Rocket 3.4 09:56:10 10° N 10:01:31 81° W 10:03:32 40° S
AQUA 4.1 09:59:03 10° NNE 10:03:42 62° E 10:05:27 36° SSE
Cosmos 1023 Rocket 4.5 09:58:38 10° NNW 10:03:43 58° WSW 10:04:38 50° SW
Cosmos 1140 Rocket 3.4 10:00:53 10° NNW 10:05:58 60° WSW 10:07:08 47° SSW
Cosmos 1151 Rocket 3.8 10:02:23 10° N 10:06:32 48° E 10:09:24 18° SSE
Delta 2 Rocket 3.5 10:06:02 46° WNW 10:07:09 70° N 10:11:24 10° E
H-2A R/B 3.5 10:04:45 10° NNW 10:07:58 24° WNW 10:07:58 24° WNW
Cosmos 1066 Rocket 4.3 10:03:14 10° N 10:08:35 71° E 10:12:49 16° SSE
COSMOS 2428 3.7 10:07:13 19° SSE 10:10:47 40° ESE 10:16:05 10° NE
Cosmos 405 Rocket 2.9 10:10:40 46° ESE 10:11:00 49° E 10:14:08 10° NNE
ARIANE 6 FM1 Upper Stage 3.0 10:11:13 44° WNW 10:11:32 45° NW 10:15:22 10° NNE
Resurs 1-4 Rocket 2.8 10:07:37 10° N 10:12:27 37° WNW 10:13:36 33° W
H-2A R/B 2.5 10:12:34 35° S 10:13:19 37° SSE 10:24:04 10° E
NOSS 2-2 (D) 3.9 10:14:16 37° SSE 10:14:59 42° ESE 10:18:04 10° NE
Cosmos 2322 4.2 10:13:23 24° S 10:16:38 55° ESE 10:22:11 10° NNE
Milstar 3 Cent rocket 2.8 10:15:47 34° SW 10:17:58 45° S 10:22:42 10° ESE
SeaSat 1 2.4 10:18:29 25° S 10:21:14 61° WSW 10:26:05 10° NNW
Cosmos 407 Rocket 3.4 10:16:41 10° NNW 10:21:58 84° WSW 10:27:16 10° SSE
SAR-Lupe-3 3.9 10:22:45 83° SE 10:22:50 86° E 10:25:47 10° NNW
METEOR-M 4.1 10:18:55 10° NNE 10:24:16 84° ESE 10:27:28 25° S
Cosmos 1844 Rocket 3.1 10:20:30 10° NW 10:25:42 40° WSW 10:27:29 31° SW
CZ-2D R/B 3.1 10:22:34 10° N 10:27:00 29° WNW 10:28:24 25° W
Nadezhda 3 Rocket 3.9 10:21:34 10° NNW 10:27:41 67° W 10:32:11 19° S
ATLAS 2AS CENTAUR R/B 4.3 10:24:10 10° WNW 10:25:47 14° W 10:25:47 14° W
H-2A R/B 4.2 10:26:21 10° NNE 10:30:04 44° E 10:32:42 17° SSE
Cosmos 1844 4.1 10:25:52 10° NW 10:31:13 42° WSW 10:34:08 24° SSW
Cosmos 2341 Rocket 4.2 10:26:24 12° S 10:32:06 70° E 10:38:16 10° NNE
Cosmos 2360 Rocket 3.6 10:31:48 19° W 10:33:48 23° WNW 10:38:13 10° N
Lacrosse 4 Rocket 3.0 10:31:15 14° SSE 10:34:04 29° ESE 10:37:37 10° NE
Cosmos 2366 rocket 4.3 10:29:48 10° S 10:35:58 66° E 10:42:06 10° NNE
Cosmos 1766 Rocket 4.4 10:32:21 12° SSE 10:36:10 47° E 10:40:18 10° NNE
ARGOS 4.5 10:38:23 10° NNE 10:43:23 38° E 10:48:21 10° SSE
Cosmos 2327 Rocket 4.5 10:40:01 21° SSW 10:44:05 61° W 10:50:09 10° N
OAO 3 Rocket 3.1 10:40:20 16° W 10:44:06 90° NNE 10:48:47 10° E
Iridium 4 Rocket 4.0 10:40:31 10° S 10:46:16 70° E 10:51:47 10° N
ALOS 3.6 10:43:10 10° NNW 10:46:43 23° WNW 10:48:09 20° W
Cosmos 1805 3.7 10:46:38 31° WSW 10:47:20 35° W 10:50:33 10° NNW
Cosmos 2219 Rocket 3.2 10:45:24 21° WSW 10:48:05 31° WNW 10:53:01 10° N
Cosmos 1437 Rocket 4.0 10:45:49 10° N 10:49:15 39° ENE 10:52:38 10° SSE
H-2A R/B 1.9 10:46:32 10° N 10:51:25 73° WNW 10:55:15 16° SSW
Cosmos 1954 Rocket 4.3 10:50:46 10° NNW 10:55:57 72° ENE 11:01:09 10° SSE
Cosmos 2322 Rocket 4.2 10:54:11 10° W 10:56:37 13° NW 10:59:03 10° NNW
USA 234 3.9 10:50:30 10° NE 10:56:48 50° SE 11:02:56 11° SSW
ATLAS 5 CENTAUR R/B 2.7 10:52:48 10° NW 10:57:32 36° WSW 11:03:11 10° S
ADEOS II 3.5 10:53:42 10° NNW 10:57:35 21° WNW 11:00:02 16° WSW
Meteor 2-9 Rocket 4.4 10:52:06 10° S 10:57:56 85° E 11:03:48 10° N
In-Cosmos 22 4.0 10:56:01 10° N 11:01:21 84° W 11:06:47 10° S
SL-14 R/B 3.7 10:59:02 10° N 11:02:44 59° E 11:06:26 10° SSE
COSMOS 2455 3.7 11:00:01 10° S 11:05:41 46° ESE 11:11:24 10° NE
BREEZE-M R/B 4.2 11:02:52 14° SSW 11:05:51 41° SE 11:12:04 10° ENE
Cosmos 2251 Rocket 3.6 11:00:57 10° NNW 11:06:03 52° WSW 11:11:06 10° S
Cosmos 1908 3.4 11:08:05 10° S 11:11:10 53° E 11:14:16 10° NNE
Cosmos 1110 Rocket 4.1 11:07:21 10° SSW 11:12:36 82° ESE 11:17:50 10° NNE
SWARM C 4.5 11:13:13 10° N 11:16:34 76° W 11:19:54 10° S
SWARM A 4.2 11:13:21 10° N 11:16:43 86° E 11:20:04 10° S
Cosmos 1821 Rocket 4.0 11:11:58 10° S 11:18:03 88° E 11:24:16 10° N
Cosmos 1939 Rocket 4.0 11:14:28 10° NNE 11:18:09 42° E 11:21:49 10° S
Cosmos 1975 2.6 11:14:35 10° S 11:18:18 90° E 11:22:04 10° N
Cosmos 1190 Rocket 4.1 11:13:37 10° NNW 11:18:37 51° WSW 11:23:36 10° S
Cosmos 1328 Rocket 3.4 11:16:06 10° N 11:20:23 75° W 11:24:38 10° S
ACS3 Solar Sail 3.4 11:18:04 10° NNE 11:23:28 34° E 11:28:58 10° SSE
Cosmos 1766 3.0 11:21:55 10° SSW 11:25:16 58° W 11:28:41 10° N
Cosmos 2278 Rocket 4.1 11:20:54 10° N 11:26:05 35° ENE 11:31:14 10° SE
ATLAS CENTAUR R/B 3.3 11:24:16 10° W 11:26:12 14° NW 11:28:12 10° NNW
Cosmos 2218 Rocket 4.3 11:21:17 10° SSW 11:27:14 49° W 11:33:10 10° N
USA 281 3.5 11:20:55 10° NNE 11:27:28 71° ESE 11:34:00 10° SSW
Cosmos 1980 3.8 11:23:07 10° SSW 11:28:46 83° ESE 11:34:27 10° NNE
NOSS 3-2 (C) 4.2 11:25:01 11° WSW 11:29:17 30° NW 11:34:16 10° NNE
Exosat Rocket 3.7 11:27:23 10° SSW 11:32:56 82° ESE 11:37:54 10° NNE
PAYLOAD A 4.2 11:28:02 10° N 11:33:16 61° WNW 11:38:17 10° SSW
Cosmos 1470 2.9 11:30:16 10° S 11:33:44 64° E 11:37:12 10° NNE
NOSS 3 (A) 3.1 11:32:25 10° SSW 11:34:21 90° ESE 11:36:00 10° NNE
SL-16 R/B 3.2 11:30:33 10° SSW 11:36:03 32° W 11:41:35 10° NW
SJ 16-02 1.2 11:34:27 10° NNW 11:38:43 76° WSW 11:42:58 10° S
CZ-2C R/B 3.1 11:35:45 10° N 11:40:29 41° WNW 11:45:17 10° SW
Helios 1A Rocket 2.5 11:37:24 10° S 11:40:53 67° WSW 11:44:24 10° NNW
Meteor 1-13 Rocket 4.2 11:36:54 10° NNW 11:42:24 71° W 11:47:59 10° S
SL-8 R/B 3.7 11:39:10 10° SW 11:43:53 84° NW 11:48:38 10° NE
Meteor 1-11 Rocket 4.3 11:40:58 10° SW 11:46:14 40° WNW 11:51:39 10° N
Delta 2 Rocket 3.3 11:42:09 10° W 11:46:24 77° SSW 11:50:34 10° ESE
